Time,TemperatureF,DewpointF,PressureIn,WindDirection,WindDirectionDegrees,WindSpeedMPH,WindSpeedGustMPH,Humidity,HourlyPrecipIn,Conditions,Clouds,dailyrainin,SoftwareType,DateUTC
2013-08-06 00:02:00,77.0,73.0,29.85,North,360,0.0,0.0,88,0.00,,,0.00,,2013-08-06 05:02:00,
2013-08-06 00:11:00,77.0,73.0,29.85,North,360,0.0,0.0,88,0.00,,,0.00,,2013-08-06 05:11:00,
2013-08-06 00:22:00,77.0,73.0,29.85,North,360,0.0,0.0,88,0.00,,,0.00,,2013-08-06 05:22:00,
2013-08-06 00:32:00,77.0,73.0,29.84,North,360,0.0,0.0,88,0.00,,,0.00,,2013-08-06 05:32:00,
2013-08-06 00:43:00,77.0,73.0,29.84,North,360,0.0,0.0,88,0.00,,,0.00,,2013-08-06 05:43:00,
2013-08-06 00:53:00,77.0,73.0,29.84,North,360,0.0,0.0,88,0.00,,,0.00,,2013-08-06 05:53:00,
2013-08-06 01:02:00,77.0,74.0,29.82,North,360,0.0,0.0,89,0.00,,,0.00,,2013-08-06 06:02:00,
2013-08-06 01:11:00,77.0,74.0,29.82,North,360,0.0,0.0,89,0.00,,,0.00,,2013-08-06 06:11:00,
2013-08-06 01:22:00,77.0,74.0,29.82,North,360,0.0,0.0,89,0.00,,,0.00,,2013-08-06 06:22:00,
2013-08-06 01:32:00,77.0,74.0,29.81,North,360,0.0,0.0,89,0.00,,,0.00,,2013-08-06 06:32:00,
2013-08-06 01:43:00,77.0,74.0,29.81,North,360,0.0,0.0,89,0.00,,,0.00,,2013-08-06 06:43:00,
2013-08-06 01:52:00,77.0,74.0,29.81,North,360,0.0,0.0,89,0.00,,,0.00,,2013-08-06 06:52:00,
2013-08-06 02:01:00,77.0,74.0,29.80,North,360,0.0,0.0,89,0.00,,,0.00,,2013-08-06 07:01:00,
2013-08-06 02:12:00,77.0,74.0,29.80,North,360,0.0,0.0,89,0.00,,,0.00,,2013-08-06 07:12:00,
2013-08-06 02:22:00,77.0,74.0,29.80,North,360,0.0,0.0,89,0.00,,,0.00,,2013-08-06 07:22:00,
2013-08-06 02:32:00,77.0,74.0,29.80,ESE,120,1.0,1.0,90,0.00,,,0.00,,2013-08-06 07:32:00,
2013-08-06 02:43:00,77.0,74.0,29.80,ESE,120,1.0,1.0,90,0.00,,,0.00,,2013-08-06 07:43:00,
2013-08-06 02:53:00,77.0,74.0,29.80,ESE,120,1.0,1.0,90,0.00,,,0.00,,2013-08-06 07:53:00,
2013-08-06 03:02:00,76.0,73.0,29.75,North,360,0.0,0.0,90,0.00,,,0.00,,2013-08-06 08:02:00,
2013-08-06 03:11:00,76.0,73.0,29.75,North,360,0.0,0.0,90,0.00,,,0.00,,2013-08-06 08:11:00,
2013-08-06 03:22:00,76.0,73.0,29.75,North,360,0.0,0.0,90,0.00,,,0.00,,2013-08-06 08:22:00,
2013-08-06 03:33:00,74.0,71.0,29.83,South,170,1.0,4.0,89,0.44,,,0.44,,2013-08-06 08:33:00,
2013-08-06 03:43:00,74.0,71.0,29.83,South,170,1.0,4.0,89,0.44,,,0.44,,2013-08-06 08:43:00,
2013-08-06 03:52:00,74.0,71.0,29.83,South,170,1.0,4.0,89,0.44,,,0.44,,2013-08-06 08:52:00,
2013-08-06 04:01:00,71.0,68.0,29.82,East,80,0.0,1.0,90,1.02,,,1.02,,2013-08-06 09:01:00,
2013-08-06 04:11:00,71.0,68.0,29.82,East,80,0.0,1.0,90,1.02,,,1.02,,2013-08-06 09:11:00,
2013-08-06 04:22:00,71.0,68.0,29.82,East,80,0.0,1.0,90,1.02,,,1.02,,2013-08-06 09:22:00,
2013-08-06 04:32:00,71.0,68.0,29.83,North,360,0.0,0.0,90,0.64,,,1.02,,2013-08-06 09:32:00,
2013-08-06 04:43:00,71.0,68.0,29.83,North,360,0.0,0.0,90,0.64,,,1.02,,2013-08-06 09:43:00,
2013-08-06 04:52:00,71.0,68.0,29.83,North,360,0.0,0.0,90,0.64,,,1.02,,2013-08-06 09:52:00,
2013-08-06 05:01:00,70.0,67.0,29.83,North,360,0.0,0.0,90,0.00,,,1.02,,2013-08-06 10:01:00,
2013-08-06 05:12:00,70.0,67.0,29.83,North,360,0.0,0.0,90,0.00,,,1.02,,2013-08-06 10:12:00,
2013-08-06 05:22:00,70.0,67.0,29.83,North,360,0.0,0.0,90,0.00,,,1.02,,2013-08-06 10:22:00,
2013-08-06 05:32:00,70.0,67.0,29.81,North,360,0.0,0.0,90,0.00,,,1.02,,2013-08-06 10:32:00,
2013-08-06 05:43:00,70.0,67.0,29.81,North,360,0.0,0.0,90,0.00,,,1.02,,2013-08-06 10:43:00,
2013-08-06 05:53:00,70.0,67.0,29.81,North,360,0.0,0.0,90,0.00,,,1.02,,2013-08-06 10:53:00,
2013-08-06 06:02:00,71.0,68.0,29.80,North,360,0.0,0.0,90,0.00,,,1.02,,2013-08-06 11:02:00,
2013-08-06 06:11:00,71.0,68.0,29.80,North,360,0.0,0.0,90,0.00,,,1.02,,2013-08-06 11:11:00,
2013-08-06 06:22:00,71.0,68.0,29.80,North,360,0.0,0.0,90,0.00,,,1.02,,2013-08-06 11:22:00,
2013-08-06 06:32:00,70.0,67.0,29.80,North,360,0.0,0.0,90,0.00,,,1.02,,2013-08-06 11:32:00,
2013-08-06 06:43:00,70.0,67.0,29.80,North,360,0.0,0.0,90,0.00,,,1.02,,2013-08-06 11:43:00,
2013-08-06 06:53:00,70.0,67.0,29.80,North,360,0.0,0.0,90,0.00,,,1.02,,2013-08-06 11:53:00,
2013-08-06 07:02:00,71.0,68.0,29.79,East,79,0.0,1.0,90,0.00,,,1.02,,2013-08-06 12:02:00,
2013-08-06 07:11:00,71.0,68.0,29.79,East,79,0.0,1.0,90,0.00,,,1.02,,2013-08-06 12:11:00,
2013-08-06 07:22:00,71.0,68.0,29.79,East,79,0.0,1.0,90,0.00,,,1.02,,2013-08-06 12:22:00,
2013-08-06 07:32:00,71.0,68.0,29.81,East,79,0.0,1.0,90,0.00,,,1.02,,2013-08-06 12:32:00,
2013-08-06 07:43:00,71.0,68.0,29.81,East,79,0.0,1.0,90,0.00,,,1.02,,2013-08-06 12:43:00,
2013-08-06 07:52:00,71.0,68.0,29.81,East,79,0.0,1.0,90,0.00,,,1.02,,2013-08-06 12:52:00,
2013-08-06 08:02:00,72.0,69.0,29.82,East,79,0.0,2.0,90,0.00,,,1.02,,2013-08-06 13:02:00,
2013-08-06 08:11:00,72.0,69.0,29.82,East,79,0.0,2.0,90,0.00,,,1.02,,2013-08-06 13:11:00,
2013-08-06 08:22:00,72.0,69.0,29.82,East,79,0.0,2.0,90,0.00,,,1.02,,2013-08-06 13:22:00,
2013-08-06 08:32:00,72.0,69.0,29.84,North,360,0.0,0.0,90,0.00,,,1.02,,2013-08-06 13:32:00,
2013-08-06 08:42:00,72.0,69.0,29.84,North,360,0.0,0.0,90,0.00,,,1.02,,2013-08-06 13:42:00,
2013-08-06 08:53:00,72.0,69.0,29.84,North,360,0.0,0.0,90,0.00,,,1.02,,2013-08-06 13:53:00,
2013-08-06 09:01:00,73.0,70.0,29.85,East,79,0.0,1.0,90,0.00,,,1.02,,2013-08-06 14:01:00,
2013-08-06 09:11:00,73.0,70.0,29.85,East,79,0.0,1.0,90,0.00,,,1.02,,2013-08-06 14:11:00,
2013-08-06 09:22:00,73.0,70.0,29.85,East,79,0.0,1.0,90,0.00,,,1.02,,2013-08-06 14:22:00,
2013-08-06 09:32:00,73.0,70.0,29.85,East,79,1.0,1.0,90,0.00,,,1.02,,2013-08-06 14:32:00,
2013-08-06 09:42:00,73.0,70.0,29.85,East,79,1.0,1.0,90,0.00,,,1.02,,2013-08-06 14:42:00,
2013-08-06 09:53:00,73.0,70.0,29.85,East,79,1.0,1.0,90,0.00,,,1.02,,2013-08-06 14:53:00,
2013-08-06 10:02:00,74.0,71.0,29.85,ESE,121,2.0,2.0,90,0.00,,,1.02,,2013-08-06 15:02:00,
2013-08-06 10:11:00,74.0,71.0,29.85,ESE,121,2.0,2.0,90,0.00,,,1.02,,2013-08-06 15:11:00,
2013-08-06 10:22:00,74.0,71.0,29.85,ESE,121,2.0,2.0,90,0.00,,,1.02,,2013-08-06 15:22:00,
2013-08-06 10:33:00,74.0,71.0,29.85,North,360,0.0,0.0,90,0.00,,,1.02,,2013-08-06 15:33:00,
2013-08-06 10:44:00,74.0,71.0,29.85,North,360,0.0,0.0,90,0.00,,,1.02,,2013-08-06 15:44:00,
2013-08-06 10:52:00,74.0,71.0,29.85,North,360,0.0,0.0,90,0.00,,,1.02,,2013-08-06 15:52:00,
2013-08-06 11:02:00,76.0,73.0,29.85,East,97,2.0,5.0,90,0.00,,,1.02,,2013-08-06 16:02:00,
2013-08-06 11:11:00,76.0,73.0,29.85,East,97,2.0,5.0,90,0.00,,,1.02,,2013-08-06 16:11:00,
2013-08-06 11:22:00,76.0,73.0,29.85,East,97,2.0,5.0,90,0.00,,,1.02,,2013-08-06 16:22:00,
2013-08-06 11:32:00,76.0,73.0,29.85,East,97,2.0,5.0,90,0.00,,,1.02,,2013-08-06 16:32:00,
2013-08-06 11:43:00,76.0,73.0,29.85,East,97,2.0,5.0,90,0.00,,,1.02,,2013-08-06 16:43:00,
2013-08-06 12:02:00,82.0,75.0,29.85,ESE,113,2.0,3.0,79,0.00,,,1.02,,2013-08-06 17:02:00,
2013-08-06 12:11:00,82.0,75.0,29.85,ESE,113,2.0,3.0,79,0.00,,,1.02,,2013-08-06 17:11:00,
2013-08-06 12:21:00,82.0,75.0,29.85,ESE,113,2.0,3.0,79,0.00,,,1.02,,2013-08-06 17:21:00,
2013-08-06 12:32:00,83.0,73.0,29.84,SW,216,2.0,4.0,73,0.00,,,1.02,,2013-08-06 17:32:00,
2013-08-06 12:44:00,83.0,73.0,29.84,SW,216,2.0,4.0,73,0.00,,,1.02,,2013-08-06 17:44:00,
2013-08-06 12:52:00,83.0,73.0,29.84,SW,216,2.0,4.0,73,0.00,,,1.02,,2013-08-06 17:52:00,
2013-08-06 13:01:00,84.0,72.0,29.85,ESE,106,1.0,3.0,68,0.00,,,1.02,,2013-08-06 18:01:00,
2013-08-06 13:11:00,84.0,72.0,29.85,ESE,106,1.0,3.0,68,0.00,,,1.02,,2013-08-06 18:11:00,
2013-08-06 13:22:00,84.0,72.0,29.85,ESE,106,1.0,3.0,68,0.00,,,1.02,,2013-08-06 18:22:00,
2013-08-06 13:32:00,85.0,75.0,29.85,ESE,121,0.0,0.0,71,0.00,,,1.02,,2013-08-06 18:32:00,
2013-08-06 13:43:00,85.0,75.0,29.85,ESE,121,0.0,0.0,71,0.00,,,1.02,,2013-08-06 18:43:00,
2013-08-06 13:52:00,85.0,75.0,29.85,ESE,121,0.0,0.0,71,0.00,,,1.02,,2013-08-06 18:52:00,
2013-08-06 14:01:00,86.0,75.0,29.83,SW,218,2.0,3.0,69,0.00,,,1.02,,2013-08-06 19:01:00,
2013-08-06 14:11:00,86.0,75.0,29.83,SW,218,2.0,3.0,69,0.00,,,1.02,,2013-08-06 19:11:00,
2013-08-06 14:21:00,86.0,75.0,29.83,SW,218,2.0,3.0,69,0.00,,,1.02,,2013-08-06 19:21:00,
2013-08-06 14:32:00,85.0,75.0,29.82,SSE,157,2.0,3.0,71,0.00,,,1.02,,2013-08-06 19:32:00,
2013-08-06 14:42:00,85.0,75.0,29.82,SSE,157,2.0,3.0,71,0.00,,,1.02,,2013-08-06 19:42:00,
2013-08-06 14:52:00,85.0,75.0,29.82,SSE,157,2.0,3.0,71,0.00,,,1.02,,2013-08-06 19:52:00,
2013-08-06 15:01:00,86.0,74.0,29.80,ESE,111,2.0,6.0,68,0.00,,,1.02,,2013-08-06 20:01:00,
2013-08-06 15:11:00,86.0,74.0,29.80,ESE,111,2.0,6.0,68,0.00,,,1.02,,2013-08-06 20:11:00,
2013-08-06 15:22:00,86.0,74.0,29.80,ESE,111,2.0,6.0,68,0.00,,,1.02,,2013-08-06 20:22:00,
2013-08-06 15:32:00,86.0,73.0,29.79,South,187,3.0,5.0,66,0.00,,,1.02,,2013-08-06 20:32:00,
2013-08-06 15:44:00,86.0,73.0,29.79,South,187,3.0,5.0,66,0.00,,,1.02,,2013-08-06 20:44:00,
2013-08-06 15:52:00,86.0,73.0,29.79,South,187,3.0,5.0,66,0.00,,,1.02,,2013-08-06 20:52:00,
2013-08-06 16:01:00,87.0,73.0,29.78,SE,139,2.0,4.0,63,0.00,,,1.02,,2013-08-06 21:01:00,
2013-08-06 16:11:00,87.0,73.0,29.78,SE,139,2.0,4.0,63,0.00,,,1.02,,2013-08-06 21:11:00,
2013-08-06 16:22:00,87.0,73.0,29.78,SE,139,2.0,4.0,63,0.00,,,1.02,,2013-08-06 21:22:00,
2013-08-06 16:32:00,86.0,74.0,29.79,North,360,0.0,1.0,68,0.00,,,1.02,,2013-08-06 21:32:00,
2013-08-06 16:43:00,86.0,74.0,29.79,North,360,0.0,1.0,68,0.00,,,1.02,,2013-08-06 21:43:00,
2013-08-06 16:52:00,86.0,74.0,29.79,North,360,0.0,1.0,68,0.00,,,1.02,,2013-08-06 21:52:00,
2013-08-06 17:01:00,85.0,74.0,29.79,SSE,153,1.0,1.0,70,0.00,,,1.02,,2013-08-06 22:01:00,
2013-08-06 17:11:00,85.0,74.0,29.79,SSE,153,1.0,1.0,70,0.00,,,1.02,,2013-08-06 22:11:00,
2013-08-06 17:22:00,85.0,74.0,29.79,SSE,153,1.0,1.0,70,0.00,,,1.02,,2013-08-06 22:22:00,
2013-08-06 17:32:00,85.0,75.0,29.79,SE,133,0.0,0.0,71,0.00,,,1.02,,2013-08-06 22:32:00,
2013-08-06 17:43:00,85.0,75.0,29.79,SE,133,0.0,0.0,71,0.00,,,1.02,,2013-08-06 22:43:00,
2013-08-06 17:53:00,85.0,75.0,29.79,SE,133,0.0,0.0,71,0.00,,,1.02,,2013-08-06 22:53:00,
2013-08-06 18:01:00,86.0,75.0,29.78,ESE,111,1.0,2.0,70,0.00,,,1.02,,2013-08-06 23:01:00,
2013-08-06 18:11:00,86.0,75.0,29.78,ESE,111,1.0,2.0,70,0.00,,,1.02,,2013-08-06 23:11:00,
2013-08-06 18:22:00,86.0,75.0,29.78,ESE,111,1.0,2.0,70,0.00,,,1.02,,2013-08-06 23:22:00,
2013-08-06 18:32:00,85.0,74.0,29.78,North,360,0.0,0.0,70,0.00,,,1.02,,2013-08-06 23:32:00,
2013-08-06 18:43:00,85.0,74.0,29.78,North,360,0.0,0.0,70,0.00,,,1.02,,2013-08-06 23:43:00,
2013-08-06 18:52:00,85.0,74.0,29.78,North,360,0.0,0.0,70,0.00,,,1.02,,2013-08-06 23:52:00,
2013-08-06 19:01:00,85.0,75.0,29.77,ESE,121,3.0,3.0,71,0.00,,,1.02,,2013-08-07 00:01:00,
2013-08-06 19:11:00,85.0,75.0,29.77,ESE,121,3.0,3.0,71,0.00,,,1.02,,2013-08-07 00:11:00,
2013-08-06 19:21:00,85.0,75.0,29.77,ESE,121,3.0,3.0,71,0.00,,,1.02,,2013-08-07 00:21:00,
2013-08-06 19:32:00,84.0,74.0,29.78,North,360,0.0,1.0,73,0.00,,,1.02,,2013-08-07 00:32:00,
2013-08-06 19:43:00,84.0,74.0,29.78,North,360,0.0,1.0,73,0.00,,,1.02,,2013-08-07 00:43:00,
2013-08-06 19:52:00,84.0,74.0,29.78,North,360,0.0,1.0,73,0.00,,,1.02,,2013-08-07 00:52:00,
2013-08-06 20:01:00,84.0,76.0,29.78,ESE,121,1.0,3.0,76,0.00,,,1.02,,2013-08-07 01:01:00,
2013-08-06 20:11:00,84.0,76.0,29.78,ESE,121,1.0,3.0,76,0.00,,,1.02,,2013-08-07 01:11:00,
2013-08-06 20:22:00,84.0,76.0,29.78,ESE,121,1.0,3.0,76,0.00,,,1.02,,2013-08-07 01:22:00,
2013-08-06 20:32:00,83.0,75.0,29.78,North,360,0.0,0.0,77,0.00,,,1.02,,2013-08-07 01:32:00,
2013-08-06 20:43:00,83.0,75.0,29.78,North,360,0.0,0.0,77,0.00,,,1.02,,2013-08-07 01:43:00,
2013-08-06 20:52:00,83.0,75.0,29.78,North,360,0.0,0.0,77,0.00,,,1.02,,2013-08-07 01:52:00,
2013-08-06 21:02:00,82.0,75.0,29.79,North,360,0.0,0.0,79,0.00,,,1.02,,2013-08-07 02:02:00,
2013-08-06 21:11:00,82.0,75.0,29.79,North,360,0.0,0.0,79,0.00,,,1.02,,2013-08-07 02:11:00,
2013-08-06 21:22:00,82.0,75.0,29.79,North,360,0.0,0.0,79,0.00,,,1.02,,2013-08-07 02:22:00,
2013-08-06 21:33:00,81.0,75.0,29.79,North,360,0.0,0.0,81,0.00,,,1.02,,2013-08-07 02:33:00,
2013-08-06 21:43:00,81.0,75.0,29.79,North,360,0.0,0.0,81,0.00,,,1.02,,2013-08-07 02:43:00,
2013-08-06 21:53:00,81.0,75.0,29.79,North,360,0.0,0.0,81,0.00,,,1.02,,2013-08-07 02:53:00,
2013-08-06 22:01:00,80.0,75.0,29.81,North,360,0.0,0.0,84,0.00,,,1.02,,2013-08-07 03:01:00,
2013-08-06 22:11:00,80.0,75.0,29.81,North,360,0.0,0.0,84,0.00,,,1.02,,2013-08-07 03:11:00,
2013-08-06 22:23:00,80.0,75.0,29.81,North,360,0.0,0.0,84,0.00,,,1.02,,2013-08-07 03:23:00,
2013-08-06 22:32:00,79.0,74.0,29.81,SE,136,0.0,2.0,85,0.00,,,1.02,,2013-08-07 03:32:00,
2013-08-06 22:43:00,79.0,74.0,29.81,SE,136,0.0,2.0,85,0.00,,,1.02,,2013-08-07 03:43:00,
2013-08-06 22:52:00,79.0,74.0,29.81,SE,136,0.0,2.0,85,0.00,,,1.02,,2013-08-07 03:52:00,
2013-08-06 23:01:00,78.0,74.0,29.81,North,360,0.0,0.0,87,0.00,,,1.02,,2013-08-07 04:01:00,
2013-08-06 23:11:00,78.0,74.0,29.81,North,360,0.0,0.0,87,0.00,,,1.02,,2013-08-07 04:11:00,
2013-08-06 23:21:00,78.0,74.0,29.81,North,360,0.0,0.0,87,0.00,,,1.02,,2013-08-07 04:21:00,
2013-08-06 23:33:00,78.0,74.0,29.81,North,360,0.0,0.0,88,0.00,,,1.02,,2013-08-07 04:33:00,
2013-08-06 23:43:00,78.0,74.0,29.81,North,360,0.0,0.0,88,0.00,,,1.02,,2013-08-07 04:43:00,
2013-08-06 23:52:00,78.0,74.0,29.81,North,360,0.0,0.0,88,0.00,,,1.02,,2013-08-07 04:52:00,